Flag for Germany Weather past 2 weeks in Beckum, North Rhine-Westphalia, Germany

Now
64 °F

Passing clouds.


Feels Like: 64 °F
Forecast: 50 / 77 °F
Wind: 5 mph from Northeast

Location: Dortmund / Wickede

Current Time: Jul 31, 2015 at 7:37:05 PM

Latest Report: Jul 31, 2015 at 7:20 PM


Visibility: N/A

Pressure: 30.07 "Hg

Humidity: 37%

Dew point: 37 °F

Location of BeckumLocation

Historic Weather in Beckum — Graph

°F

Beckum temperature yesterday

Maximum temperature yesterday: 63 °F (at 12:20 PM)
Minimum temperature yesterday: 50 °F (at 5:20 AM)
Average temperature yesterday: 58 °F

Past Weeks' High & Low Weather Summary

 TemperatureHumidityPressure
High86 °F (Jul 17, 1:50 PM)88% (Jul 17, 6:50 AM)30.15 "Hg (Jul 17, 6:50 AM)
Low45 °F (Jul 31, 5:20 AM)27% (Jul 17, 3:20 PM)29.50 "Hg (Jul 25, 7:50 AM)
Average65 °F65%29.87 "Hg
* Reported Jul 16 6:20 PM — Jul 31 6:20 PM, Beckum, Weather by CustomWeather, © 2015

Note: Actual official high and low records may vary slightly from our data, if they occured in-between our weather recording intervals... More about our weather records

Advertising

Beckum weather history for previous 24 hours

 ConditionsComfort  
Time TempWeatherWind HumidityBarometerVisibility
6:20 PM
Fri, Jul 31
66 °FSunny.6 mph35%30.07 "Hg10 mi
5:50 PM64 °FSunny.2 mph37%30.07 "Hg10 mi
5:20 PM66 °FSunny.3 mph35%30.07 "Hg10 mi
4:50 PM64 °FSunny.5 mph34%30.07 "Hg10 mi
4:20 PM64 °FPassing clouds.5 mph37%30.09 "HgN/A
3:50 PM66 °FSunny.3 mph40%30.09 "Hg10 mi
3:20 PM63 °FPassing clouds.6 mph49%30.09 "HgN/A
2:50 PM63 °FSunny.5 mph37%30.09 "Hg10 mi
2:20 PM61 °FSunny.3 mph48%30.12 "Hg10 mi
1:50 PM63 °FPassing clouds.5 mph39%30.12 "HgN/A
1:20 PM61 °FScattered clouds.2 mph48%30.12 "HgN/A
12:50 PM61 °FPassing clouds.6 mph48%30.12 "HgN/A
12:20 PM61 °FScattered clouds.3 mph52%30.12 "HgN/A
11:50 AM59 °FScattered clouds.6 mph51%30.12 "HgN/A
11:20 AM59 °FScattered clouds.3 mph55%30.12 "HgN/A
10:50 AM57 °FScattered clouds.3 mph55%30.12 "HgN/A
10:20 AM57 °FScattered clouds.6 mph63%30.12 "HgN/A
9:20 AM54 °FPassing clouds.6 mph72%30.15 "HgN/A
8:50 AM54 °FPassing clouds.5 mph72%30.15 "HgN/A
8:20 AM54 °FPassing clouds.6 mph72%30.12 "HgN/A
7:50 AM52 °FSunny.6 mph77%30.12 "Hg10 mi
7:20 AM50 °FPassing clouds.7 mph82%30.12 "HgN/A
6:50 AM46 °FClear.7 mph87%30.12 "Hg10 mi
6:20 AM45 °FClear.7 mph87%30.09 "Hg10 mi
5:50 AM45 °FPassing clouds.7 mph87%30.09 "HgN/A
5:20 AM45 °FClear.7 mph87%30.09 "Hg10 mi
10:50 PM
Thu, Jul 30
54 °FClear.7 mph77%30.07 "Hg10 mi
10:20 PM55 °FScattered clouds.3 mph77%30.07 "HgN/A
9:50 PM55 °FSunny.7 mph72%30.04 "Hg10 mi
9:20 PM57 °FPassing clouds.6 mph67%30.04 "HgN/A
8:50 PM57 °FScattered clouds.6 mph67%30.04 "HgN/A
8:20 PM59 °FSunny.9 mph59%30.04 "Hg10 mi
7:50 PM59 °FScattered clouds.9 mph63%30.01 "HgN/A
7:20 PM61 °FPartly sunny.8 mph55%30.01 "HgN/A
Weather by CustomWeather, © 2015

See weather overviewHow to use our weather pages